Simultaneous Nadir Overpasses (SNOs) Predictions

Prediction of SNOs between GOES-15 and TERRA Satellite Orbit:

Table of predicted SNOs for the next 14.0 days since TLE Epoch: 3/23/2017
Index Date Time (GOES-15) GOES-15 Lat,Lon TERRA Lat,Lon Distance(km) Time Diff (sec)
1 03/23/2017 19:33:46 -0.01,-134.91 0.14,-135.52 69.80 80
2 03/25/2017 19:18:55 -0.01,-134.98 -0.50,-132.56 274.67 80
3 03/26/2017 07:40:20 0.01,-135.01 -0.55,-137.76 312.75 80
4 03/28/2017 07:30:49 0.01,-135.08 0.08,-134.81 31.11 80
5 03/30/2017 07:18:38 0.00,-135.14 0.71,-131.85 374.13 80
6 03/30/2017 19:39:53 -0.01,-135.15 0.37,-137.01 211.47 80
7 04/01/2017 19:25:03 -0.01,-135.20 -0.26,-134.06 130.38 80
8 04/02/2017 07:46:26 0.01,-135.22 -0.85,-139.25 458.25 80
9 04/03/2017 19:12:52 -0.01,-135.25 -0.89,-131.10 471.50 80
10 04/04/2017 07:34:15 0.02,-135.26 -0.21,-136.29 117.17 80
11 04/06/2017 07:24:44 0.02,-135.31 0.42,-133.34 223.64 80




NCC Satellite Simultaneous Nadir Overpasses (SNOs) Prediction Service
